Regional Weather Roundup
Issued by NWS Green Bay, WI

Home | Current Version | Previous Version | Text Only | Print | Product List | Glossary On
Versions: 1 2 3 4 5 6 7 8 9 10 11 12 13 14 15 16 17 18 19 20 21 22 23 24 25 26 27 28 29 30 31 32 33 34 35 36 37 38 39 40 41 42 43 44 45 46 47 48 49 50
000
ASUS43 KGRB 262000
RWRGRB

NORTH-CENTRAL AND NORTHEAST WISCONSIN REGIONAL WEATHER ROUNDUP
NATIONAL WEATHER SERVICE GREEN BAY WI
300 PM CDT FRI MAY 26 2017

WIZ005-009-010>012-018-019-262100-
NORTH CENTRAL WISCONSIN

CITY           SKY/WX    TMP DP  RH WIND       PRES   REMARKS
IRONWOOD       CLOUDY    69  55  60 S6        29.77S
MANITOWISH WTR NOT AVBL
ARBOR VITAE    NOT AVBL
EAGLE RIVER    NOT AVBL
LAND O LAKES   NOT AVBL
RHINELANDER    CLOUDY    69  50  50 S10       29.82F
PHILLIPS       NOT AVBL
ANTIGO         NOT AVBL
TOMAHAWK       NOT AVBL
MERRILL        NOT AVBL
$$

WIZ013-073-262100-
NORTHEAST WISCONSIN

CITY           SKY/WX    TMP DP  RH WIND       PRES   REMARKS
IRON MOUNTAIN  CLOUDY    68  52  56 S7        29.82R
MARINETTE      CLOUDY    66  54  65 SE8       29.85S
$$

WIZ017-030-035>037-045-262100-
CENTRAL WISCONSIN

CITY           SKY/WX    TMP DP  RH WIND       PRES   REMARKS
MEDFORD        NOT AVBL
WAUSAU         CLOUDY    70  55  59 S9        29.80F
MOSINEE        MOSUNNY   72  55  56 S9        29.83S
MARSHFIELD     CLOUDY    72  54  53 S15       29.79F
WISC RAPIDS    CLOUDY    72  54  53 S10       29.82S
STEVENS POINT  NOT AVBL
WAUPACA        NOT AVBL
SHAWANO        NOT AVBL
CLINTONVILLE   NOT AVBL
WAUTOMA        CLOUDY    71  56  58 S8        29.82F
$$

WIZ038-039-048-051-262100-
FOX VALLEY

CITY           SKY/WX    TMP DP  RH WIND       PRES   REMARKS
NWS GREEN BAY  CLOUDY    69  60  73 SE12      29.83S
APPLETON       PTSUNNY   70  52  52 SE8       29.83R
OSHKOSH        CLOUDY    69  56  62 E9        29.83R
FOND DU LAC    CLOUDY    70  53  54 SE8       29.84R
$$

WIZ022-050-052-262100-
EAST CENTRAL WISCONSIN

CITY           SKY/WX    TMP DP  RH WIND       PRES   REMARKS
EPHRAIM        NOT AVBL
WASHINGTON ISL NOT AVBL
STURGEON BAY   MOSUNNY   63  52  67 SE7       29.86S
MANITOWOC      NOT AVBL
SHEBOYGAN      CLOUDY    62  55  77 S5        29.86R
$$

LMZ563-521-522-541>543-262100-
LAKESHORE

STATION/POSITION TIME  TEMP    WIND        PRES    VSBY  WAVE
                       AIR SEA DIR/SP/G                  HT/PER
                 (UTC) (F)     (DEG/KT/KT) (MB)    (MI)  (FT/S)
SHEBOYGAN LKSHOR 1900   48     160/  4/  5 1011.1R
KEWAUNEE LKSHORE 1930   48     110/  3/  5 1010.8F
NORTHPORT PIER   1940   60     150/  6/  9 1010.8S
N MID LAKE BUOY  1850   42 42  210/  6/  6 1012.2          0
CHAMBERS ISLAND  1940   60     350/  4/  5 1010.2S
MENOMINEE LKSHOR 1930          120/  5/  7 1009.8S
$$




USA.gov is the U.S. government's official web portal to all federal, state and local government web resources and services.